TimeAKDT,TemperatureF,Dew PointF,Humidity,Sea Level PressureIn,VisibilityMPH,Wind Direction,Wind SpeedMPH,Gust SpeedMPH,PrecipitationIn,Events,Conditions,WindDirDegrees,DateUTC
12:20 AM,39.2,33.8,81,30.12,10.0,NNE,8.1,-,N/A,,Overcast,30,2013-05-08 08:20:00
12:56 AM,39.0,34.0,82,30.14,10.0,NNE,5.8,-,N/A,,Overcast,20,2013-05-08 08:56:00
1:34 AM,39.2,33.8,81,30.12,10.0,NNE,3.5,-,N/A,,Overcast,20,2013-05-08 09:34:00
1:56 AM,39.9,32.0,73,30.14,10.0,NE,4.6,-,N/A,,Overcast,40,2013-05-08 09:56:00
2:56 AM,39.9,32.0,73,30.13,10.0,North,8.1,-,N/A,,Overcast,10,2013-05-08 10:56:00
3:56 AM,39.0,34.0,82,30.13,10.0,NNE,10.4,-,N/A,,Overcast,20,2013-05-08 11:56:00
4:46 AM,37.4,33.8,87,30.10,10.0,NNE,12.7,-,0.00,,Overcast,30,2013-05-08 12:46:00
4:56 AM,37.9,34.0,86,30.12,10.0,NNE,12.7,-,0.00,,Overcast,30,2013-05-08 12:56:00
5:34 AM,37.4,33.8,87,30.09,10.0,NNE,15.0,-,N/A,,Overcast,20,2013-05-08 13:34:00
5:56 AM,37.9,33.1,83,30.11,10.0,NE,10.4,-,N/A,,Overcast,40,2013-05-08 13:56:00
6:17 AM,37.4,33.8,87,30.09,10.0,NNE,11.5,-,N/A,,Overcast,30,2013-05-08 14:17:00
6:29 AM,37.4,33.8,87,30.09,10.0,NNE,10.4,-,N/A,,Overcast,20,2013-05-08 14:29:00
6:30 AM,37.4,33.8,87,30.09,10.0,NNE,10.4,-,N/A,,Overcast,30,2013-05-08 14:30:00
6:56 AM,37.9,34.0,86,30.11,10.0,NNE,11.5,-,N/A,,Overcast,30,2013-05-08 14:56:00
7:56 AM,37.9,34.0,86,30.11,10.0,NNE,18.4,23.0,N/A,,Overcast,30,2013-05-08 15:56:00
8:39 AM,37.4,33.8,87,30.10,10.0,NE,19.6,28.8,N/A,,Overcast,40,2013-05-08 16:39:00
8:56 AM,37.9,33.1,83,30.12,10.0,NE,19.6,25.3,N/A,,Overcast,40,2013-05-08 16:56:00
9:56 AM,37.9,32.0,79,30.13,10.0,NE,16.1,28.8,N/A,,Overcast,40,2013-05-08 17:56:00
10:56 AM,37.9,32.0,79,30.13,10.0,NE,21.9,28.8,N/A,,Overcast,40,2013-05-08 18:56:00
12:56 PM,37.9,32.0,79,30.13,10.0,NNE,16.1,29.9,N/A,,Overcast,30,2013-05-08 20:56:00
1:56 PM,37.9,32.0,79,30.12,10.0,NNE,19.6,32.2,N/A,,Overcast,30,2013-05-08 21:56:00
2:56 PM,37.9,32.0,79,30.12,10.0,NE,19.6,32.2,N/A,,Overcast,40,2013-05-08 22:56:00
3:56 PM,37.9,33.1,83,30.11,10.0,NNE,21.9,28.8,N/A,,Overcast,30,2013-05-08 23:56:00
4:56 PM,37.9,32.0,79,30.11,10.0,NNE,15.0,28.8,N/A,,Overcast,30,2013-05-09 00:56:00
5:56 PM,37.0,33.1,86,30.10,10.0,NE,13.8,28.8,N/A,,Overcast,40,2013-05-09 01:56:00
6:56 PM,37.0,33.1,86,30.09,10.0,NNE,18.4,25.3,0.00,Rain,Light Rain,30,2013-05-09 02:56:00
7:56 PM,37.0,33.1,86,30.09,7.0,NNE,17.3,25.3,0.01,Rain,Light Rain,30,2013-05-09 03:56:00
8:56 PM,37.9,34.0,86,30.08,10.0,NNE,12.7,21.9,0.03,Rain,Light Rain,30,2013-05-09 04:56:00
9:56 PM,37.9,34.0,86,30.09,8.0,NNE,9.2,20.7,0.00,,Overcast,30,2013-05-09 05:56:00
10:56 PM,37.9,35.1,89,30.09,9.0,North,11.5,27.6,0.01,Rain,Light Rain,360,2013-05-09 06:56:00
11:56 PM,37.9,35.1,89,30.10,10.0,North,13.8,21.9,0.02,Rain,Light Rain,360,2013-05-09 07:56:00